TimeAKST,TemperatureF,Dew PointF,Humidity,Sea Level PressureIn,VisibilityMPH,Wind Direction,Wind SpeedMPH,Gust SpeedMPH,PrecipitationIn,Events,Conditions,WindDirDegrees,DateUTC
12:53 AM,-26.0,-29.9,81,29.64,10.0,NNE,8.1,-,N/A,,Partly Cloudy,20,2013-02-20 09:53:00
1:53 AM,-27.9,-33.0,77,29.62,10.0,NNE,8.1,-,N/A,,Partly Cloudy,20,2013-02-20 10:53:00
2:53 AM,-26.0,-31.0,77,29.60,10.0,NE,5.8,-,N/A,,Partly Cloudy,50,2013-02-20 11:53:00
3:53 AM,-27.0,-32.1,77,29.58,10.0,NE,5.8,-,N/A,,Partly Cloudy,40,2013-02-20 12:53:00
4:53 AM,-29.0,-34.1,77,29.56,10.0,Calm,Calm,-,N/A,,Partly Cloudy,0,2013-02-20 13:53:00
5:53 AM,-27.0,-34.1,69,29.55,10.0,Variable,3.5,-,N/A,,Partly Cloudy,0,2013-02-20 14:53:00
6:53 AM,-27.9,-32.1,81,29.54,10.0,NNE,6.9,-,N/A,,Partly Cloudy,30,2013-02-20 15:53:00
7:53 AM,-27.0,-33.0,73,29.52,10.0,ENE,4.6,-,N/A,,Partly Cloudy,60,2013-02-20 16:53:00
8:53 AM,-23.1,-27.9,78,29.51,10.0,Calm,Calm,-,N/A,,Mostly Cloudy,0,2013-02-20 17:53:00
9:53 AM,-17.0,-22.0,78,29.50,10.0,Calm,Calm,-,N/A,,Mostly Cloudy,0,2013-02-20 18:53:00
10:53 AM,-9.0,-14.1,79,29.49,10.0,ENE,3.5,-,N/A,,Mostly Cloudy,70,2013-02-20 19:53:00
11:53 AM,-0.9,-9.0,69,29.48,10.0,NNE,5.8,-,N/A,,Mostly Cloudy,20,2013-02-20 20:53:00
12:53 PM,-0.0,-9.0,66,29.47,10.0,NNE,4.6,-,N/A,,Mostly Cloudy,20,2013-02-20 21:53:00
1:53 PM,-0.9,-9.9,66,29.46,10.0,Calm,Calm,-,N/A,,Mostly Cloudy,0,2013-02-20 22:53:00
2:53 PM,3.9,-7.1,60,29.45,10.0,East,6.9,-,N/A,,Mostly Cloudy,90,2013-02-20 23:53:00
3:53 PM,3.9,-7.1,60,29.45,10.0,NE,5.8,-,N/A,,Mostly Cloudy,40,2013-02-21 00:53:00
4:53 PM,3.0,-9.0,57,29.45,10.0,North,12.7,-,N/A,Snow,Light Snow,10,2013-02-21 01:53:00
5:53 PM,1.9,-9.9,58,29.45,10.0,North,11.5,-,N/A,Snow,Light Snow,10,2013-02-21 02:53:00
6:53 PM,1.0,-9.9,60,29.46,8.0,North,10.4,-,N/A,Snow,Light Snow,360,2013-02-21 03:53:00
7:53 PM,-0.0,-9.0,66,29.46,8.0,North,10.4,-,N/A,Snow,Light Snow,10,2013-02-21 04:53:00
8:53 PM,-0.0,-8.0,69,29.46,6.0,North,9.2,-,N/A,Snow,Light Snow,360,2013-02-21 05:53:00
9:53 PM,-0.0,-7.1,72,29.47,5.0,North,10.4,-,N/A,Snow,Light Snow,360,2013-02-21 06:53:00
10:53 PM,1.0,-6.0,72,29.48,3.0,North,8.1,-,N/A,Snow,Light Snow,10,2013-02-21 07:53:00
11:53 PM,1.0,-5.1,75,29.48,5.0,North,9.2,-,N/A,Snow,Light Snow,10,2013-02-21 08:53:00